Location: Domont
(49.0278°N, 2.3264°E)
Time: 02:40:56
(UTC+00:00)

Cosmos 1626 Rocket - Pass Details

Date: 07 June 2022
Orbit: 602 x 631 km, 82.5° (Epoch: 04 July)

Event Time Altitude Azimuth Distance (km) Brightness Sun altitude
Exits shadow 02:17:24 11° 183° (S) 1,884 5.5 -11.0°
Maximum altitude 02:21:32 78° 98° (E) 628 3.6 -10.6°
Drops below altitude 10° 02:25:53 10° 12° (NNE) 1,966 7.3 -10.2°
Sets 02:28:06 0° 11° (NNE) 2,872 8.3 -10.0°
